STARLINK-1531 (46572 NORAD) Tracking and Keplerian Element Data

This shows tracking and keplerian element data for the satellite.

Feedback or suggestion? Click here.




ElementValue
Catalog46572
NameSTARLINK-1531
Epoch Orbit896
Epoch Day332.91668981
Epoch Year2020
RAAN190.7186
Inclination53.001
Eccentricity0.0001447
Argument of Perigee69.8716
Mean Anonmoly52.9088
Mean Motion15.05585544
Decay Rate-5.587E-05
L11 46572U 20070AS 20332.91668981 -.00005587 00000-0 -36454-3 0 9993
L22 46572 53.0010 190.7186 0001447 69.8716 52.9088 15.05585544 8967

Live tracking and technical data element details for STARLINK-1531 (NORAD 46572). STARLINK-1531 can be tracked NOW for your location showing map with azimuth and elevation plus other details from your city location.

Track the satellite on the map from your city or location and see movement details for azimuth, elevation, latitude, longitude, range, height, and movement on the map or in text.







IsCatalogInMostPopularTable: catalog: 46572, numindb: 15
Update: records affected: 1



GetName: 46572 STARLINK-1531

Hit Count: updated at: Sun, 29 Nov 2020 10:39:07 GMT